Wind_Speed
24 26 24 18 18 20 19 18 19 20 23 23 22 23 23 25 28 28 26 26 25 25 25 26 27 26 25 25 26 27 28 28 29 30 30 30 30 31 31 31 32 32 33 34 34 35 35 36 36 37 37 38 38 39 40 40 41 41 42 42 42 43 43
26 26 25 20 18 21 21 20 21 21 22 24 25 25 25 27 30 30 28 27 27 26 26 26 27 28 27 26 26 27 29 30 31 32 32 32 32 32 33 33 33 34 34 35 35 36 36 37 37 38 38 39 39 40 40 41 41 42 42 42 43 43 44
26 26 26 25 21 20 21 20 21 22 22 24 26 26 26 26 29 31 29 27 27 26 27 27 28 28 28 27 27 28 30 31 32 33 33 33 33 33 34 34 34 34 35 36 36 36 37 37 38 38 39 39 40 40 41 41 42 43 43 43 43 43 44
25 22 25 28 24 19 19 19 20 23 22 22 24 26 25 25 29 30 27 25 26 26 27 27 28 28 28 28 28 29 31 32 33 34 35 35 34 34 34 34 35 35 36 36 36 36 37 37 38 39 39 39 40 40 40 41 42 43 43 43 43 43 44
24 21 22 26 24 18 17 18 20 24 24 22 23 26 24 24 27 29 25 24 24 25 27 28 28 29 29 29 30 30 32 33 34 35 36 36 35 35 35 35 35 35 36 36 37 37 37 38 38 39 39 40 40 40 41 42 43 44 43 43 44 44 45
25 25 23 24 23 18 16 18 20 24 25 23 23 25 24 24 27 28 25 24 24 25 27 29 30 30 30 30 30 31 33 34 35 36 37 37 36 36 35 35 35 36 36 37 37 37 38 39 39 40 41 41 41 41 43 43 44 44 44 44 44 45 47
24 26 26 25 25 22 18 18 19 23 24 23 22 23 23 24 27 28 25 24 25 27 28 30 31 32 32 31 31 32 34 34 35 37 37 37 36 36 35 35 35 36 36 37 38 38 39 39 40 41 42 43 43 43 44 44 45 46 46 46 46 47 48
22 23 24 24 25 24 20 17 19 21 23 22 20 21 23 25 28 28 26 25 26 28 29 31 32 33 34 33 33 34 34 35 36 37 37 36 36 35 35 35 35 35 36 37 38 39 40 40 41 43 43 44 44 44 44 44 45 46 47 47 48 48 48
21 21 23 22 24 26 21 19 20 21 22 22 20 21 24 28 30 29 27 25 27 30 31 32 33 34 36 36 35 35 35 34 36 37 36 36 36 36 35 35 35 36 36 37 38 39 40 41 42 43 44 44 45 45 44 44 45 47 47 48 48 48 48
22 24 25 23 24 27 24 21 22 22 23 24 22 23 25 29 31 30 27 26 28 31 33 33 34 35 37 38 36 34 34 35 36 37 37 36 36 35 35 35 36 37 37 38 39 40 41 42 43 44 44 44 44 45 44 44 46 47 47 47 48 48 48
25 26 28 26 25 28 27 25 25 25 25 26 25 25 26 29 31 30 28 27 30 33 34 34 34 35 37 38 37 36 36 37 37 38 38 37 36 35 35 36 37 38 39 39 41 42 43 43 44 44 44 44 45 45 45 45 45 46 47 48 48 48 48
25 27 28 27 27 29 29 28 28 28 28 28 28 26 27 29 30 30 29 29 32 34 34 33 34 36 37 36 36 36 38 39 39 39 38 36 35 36 37 38 38 39 40 41 42 43 44 45 45 45 45 45 45 46 46 46 45 46 46 48 48 48 48
25 27 29 29 30 31 30 28 29 31 31 31 30 28 28 30 31 31 31 31 34 35 33 33 34 37 37 35 34 36 38 40 40 39 38 37 36 37 38 38 39 40 42 43 44 45 46 46 47 47 47 47 47 47 46 46 46 47 47 47 47 46 47
28 28 29 31 33 33 32 30 29 30 31 31 31 30 30 31 32 33 32 32 35 35 34 34 35 36 37 34 34 37 40 40 39 38 37 37 38 39 39 39 39 41 44 45 46 47 47 48 48 48 48 48 48 48 47 47 48 48 48 47 45 45 46
32 32 31 33 35 36 35 33 31 30 29 29 30 30 30 32 34 34 33 33 35 36 36 36 36 36 36 35 36 40 42 41 39 37 37 38 39 40 40 40 41 43 45 46 47 48 49 49 49 49 49 49 49 49 49 48 48 49 50 49 47 46 46
32 34 34 35 37 38 37 35 32 29 28 29 30 31 32 33 35 35 33 33 35 36 37 37 35 35 36 37 40 44 44 41 39 38 39 40 41 41 41 41 43 45 46 47 48 49 49 50 50 50 50 50 49 50 50 49 48 49 50 49 47 47 47
31 34 36 38 39 38 38 36 32 28 29 30 31 32 33 34 35 35 34 34 35 36 37 36 35 36 39 41 43 45 43 41 40 40 41 41 42 42 42 44 45 46 48 49 50 50 50 51 51 51 51 50 49 50 51 49 48 49 48 48 47 47 47
32 34 35 38 39 38 36 35 34 31 30 31 32 33 34 33 34 34 34 36 37 36 35 34 33 37 42 44 44 43 41 40 41 42 42 43 43 43 45 46 47 49 50 51 51 51 51 51 51 51 51 50 50 50 50 49 48 48 47 46 46 46 44
33 33 33 35 36 36 34 32 33 32 31 32 34 34 32 31 32 33 36 37 37 35 34 32 34 40 45 45 43 41 41 41 42 43 44 45 44 45 47 49 50 51 51 52 52 52 52 52 52 52 51 50 49 49 50 49 48 47 46 45 45 44 42
32 32 33 33 32 33 31 29 30 30 29 32 34 32 28 29 31 34 36 37 37 34 31 31 36 41 44 44 42 41 41 42 42 43 45 46 46 47 49 51 53 53 53 53 53 52 52 52 51 51 50 48 48 48 49 48 48 47 46 44 44 43 39
33 32 33 31 29 29 28 27 27 27 28 30 31 30 28 29 32 35 37 38 38 35 32 33 37 40 41 42 41 41 42 42 43 44 46 47 48 48 49 52 53 53 53 53 53 53 53 52 51 50 49 48 48 47 47 48 47 46 45 44 42 40 37
35 32 30 28 26 26 25 25 25 26 27 28 29 29 29 31 35 39 40 37 34 33 34 37 38 39 40 41 41 42 42 43 44 45 47 49 49 50 50 51 51 51 52 52 52 51 50 49 49 49 48 47 47 47 47 48 47 44 43 43 41 38 34
33 30 28 26 25 25 25 24 24 25 26 27 28 29 29 32 37 40 38 35 32 32 35 38 37 38 40 41 42 42 42 44 44 45 47 49 51 52 52 52 51 50 50 49 48 48 47 47 47 47 47 46 46 47 47 47 45 43 42 41 39 36 32
32 30 29 28 27 27 26 25 26 26 27 28 28 29 30 32 35 36 34 33 34 36 39 38 37 39 41 41 42 42 43 44 45 46 48 50 52 53 53 52 52 50 48 47 46 45 45 45 45 46 46 46 46 46 45 43 42 41 41 39 37 35 31
35 34 32 31 29 28 28 28 27 28 28 29 30 30 31 32 33 34 33 33 35 37 38 37 38 41 42 42 42 43 44 46 46 47 49 50 52 53 53 52 51 50 49 48 45 43 43 44 44 45 45 45 46 45 43 40 39 39 38 37 36 33 30
36 35 33 32 30 29 29 29 29 29 29 30 32 32 32 32 33 34 33 34 37 37 37 38 39 42 42 42 42 44 46 47 48 49 50 50 52 53 52 52 52 51 50 47 43 41 42 43 44 43 44 45 45 43 41 39 37 36 36 35 34 32 29
37 37 35 33 30 30 31 30 30 30 31 32 34 34 34 34 33 33 34 36 37 37 37 39 40 41 42 42 43 44 46 48 49 49 50 50 51 51 51 52 52 51 50 47 43 41 42 43 44 43 42 43 42 39 39 38 36 34 33 32 32 30 28
38 40 38 34 30 31 31 30 30 32 33 35 36 35 34 33 31 32 34 35 35 36 38 40 41 41 42 43 44 45 46 48 49 49 50 50 50 51 51 51 50 50 50 47 44 42 42 41 40 38 37 38 38 36 36 37 37 37 36 34 32 30 27
39 42 43 39 34 33 32 31 32 34 36 36 35 33 31 30 30 32 33 33 34 36 38 40 41 42 43 45 45 46 48 50 50 51 51 50 49 50 50 50 50 49 49 47 44 42 41 39 38 37 38 39 40 40 40 40 42 43 41 38 33 29 26
40 43 46 43 37 32 30 32 34 36 36 36 34 32 31 30 31 32 33 33 35 37 39 40 41 43 45 46 47 47 49 50 50 50 49 47 46 48 50 50 50 50 49 47 43 41 41 40 40 41 43 43 43 44 44 44 43 44 44 40 33 28 26
42 44 44 43 38 31 29 32 34 36 36 35 33 31 31 31 32 32 33 34 36 38 40 41 41 44 46 48 47 47 48 49 50 49 48 47 48 51 52 51 50 49 48 45 42 41 42 42 42 42 42 43 44 44 44 44 44 44 44 38 30 26 25
44 45 44 41 37 31 30 33 35 36 36 35 33 32 31 32 33 34 35 37 39 41 42 42 43 46 47 48 48 48 48 49 50 50 49 50 52 53 52 50 49 48 46 43 40 42 44 44 43 42 41 42 42 43 43 44 44 44 41 34 27 25 26
45 48 48 45 42 36 33 32 34 36 36 34 34 34 32 33 35 37 38 40 41 43 44 43 45 47 47 47 48 49 48 49 50 50 50 52 54 54 51 49 48 47 46 43 43 45 45 44 44 43 42 41 41 41 43 44 43 42 38 33 29 27 26
45 49 49 46 44 39 35 33 35 37 36 35 35 34 33 36 38 39 41 42 43 45 45 44 45 47 48 49 49 50 49 50 51 51 52 53 54 53 51 49 47 46 45 45 46 47 46 44 44 43 43 42 41 41 42 43 42 41 37 33 30 27 24
43 43 41 39 39 35 34 36 38 37 35 35 36 35 36 38 40 41 44 45 46 46 46 46 46 47 49 50 50 50 51 51 52 53 53 53 53 52 51 49 47 45 45 45 45 45 45 43 42 41 42 41 41 41 42 42 41 40 36 30 27 24 22
40 38 35 36 38 37 38 39 39 38 36 36 37 38 38 40 41 44 47 48 48 48 47 46 47 48 49 51 51 52 52 53 54 54 54 54 54 52 49 48 47 46 45 44 44 44 43 42 40 40 40 39 39 40 41 41 39 37 32 26 23 22 22
43 42 39 39 43 47 47 44 41 41 40 39 39 40 41 42 44 47 49 49 48 49 48 48 48 49 50 51 53 53 54 54 54 54 54 53 52 50 49 49 49 47 45 44 44 43 42 40 39 39 38 38 38 38 39 38 36 32 27 23 21 21 20
44 43 42 42 46 50 50 45 42 43 41 40 41 43 44 46 48 48 49 48 48 48 49 49 50 50 51 52 53 53 53 53 53 53 53 52 50 49 49 49 49 47 45 43 43 42 41 40 39 38 38 37 37 36 35 34 31 28 25 22 21 21 19
Wind_Direction
277 279 277 270 269 277 283 282 278 276 277 278 280 281 283 286 287 288 290 293 296 297 299 300 302 304 306 308 310 312 314 315 316 317 318 318 316 314 314 314 316 318 318 319 318 318 318 318 317 315 313 312 312 312 312 312 313 313 314 315 315 315 315
282 279 277 271 268 275 281 282 282 281 281 283 284 283 284 285 287 288 290 293 295 296 297 298 299 302 304 306 308 310 311 312 313 316 318 318 318 315 313 313 314 316 317 318 318 318 318 318 317 316 314 313 312 311 311 311 311 312 313 313 313 313 313
280 279 277 277 271 270 277 285 286 284 283 283 285 285 284 286 287 288 290 293 296 297 297 298 298 300 302 304 307 307 308 309 311 314 316 317 316 314 312 312 312 313 315 316 317 318 318 318 318 317 315 313 312 311 310 310 311 311 312 312 312 312 312
277 275 276 276 269 264 274 282 283 283 281 280 281 284 286 287 288 288 292 295 298 299 298 298 299 299 301 303 305 306 306 307 310 312 314 315 315 313 311 310 311 312 313 315 317 318 319 318 317 316 314 313 312 311 311 310 311 311 311 311 311 311 310
275 270 271 272 269 268 276 280 280 280 281 280 282 285 286 287 288 290 294 298 300 301 300 300 300 299 301 303 304 304 305 306 308 310 312 314 313 311 310 310 310 311 312 314 316 317 318 317 317 316 314 314 313 312 312 311 311 311 311 311 311 310 310
275 275 275 274 276 281 281 281 282 284 286 285 286 290 288 285 288 292 296 299 301 301 301 301 300 300 300 302 302 303 304 306 308 310 312 313 312 311 310 310 310 310 311 313 315 316 317 317 316 316 315 315 314 313 313 312 311 311 311 311 311 311 310
271 277 280 281 283 285 282 283 285 289 294 291 286 292 293 287 289 294 297 300 301 301 301 301 300 300 300 300 301 302 304 306 308 310 311 311 311 310 309 309 309 309 311 313 314 315 317 317 317 317 317 316 315 314 313 312 312 312 312 313 313 313 311
271 275 280 282 282 282 284 288 288 289 296 296 289 291 295 293 292 295 299 301 302 301 300 299 299 300 300 301 302 303 304 306 307 309 310 311 310 310 309 308 308 308 311 314 316 317 318 318 318 318 317 316 314 314 313 313 313 313 314 314 315 315 312
276 279 281 280 280 283 287 288 287 288 294 296 292 289 293 294 292 295 300 301 300 300 298 298 299 300 301 303 303 304 305 305 307 309 310 311 311 310 310 308 307 308 310 314 317 318 319 319 318 317 316 315 314 313 313 314 314 314 315 315 316 316 313
283 284 285 285 282 283 285 285 285 287 289 291 291 289 290 291 292 296 300 298 297 297 297 299 302 304 305 305 305 306 307 308 310 311 311 311 311 311 310 309 309 309 310 313 317 319 319 319 318 317 316 314 314 314 314 315 315 315 316 315 315 316 313
281 281 285 288 286 283 283 283 283 285 285 287 289 290 290 290 293 297 297 295 295 295 298 303 305 304 304 304 304 306 308 309 312 313 313 312 312 312 311 311 311 311 313 316 318 319 319 318 317 316 315 315 315 315 315 316 316 316 315 315 315 314 312
279 280 282 284 285 287 286 282 281 283 285 286 288 290 290 291 293 295 295 294 294 296 300 304 303 302 301 300 300 303 304 307 311 313 313 313 313 313 314 314 314 314 317 319 319 318 318 317 316 316 316 316 315 315 316 316 316 316 315 314 312 311 310
279 280 284 285 285 289 292 288 283 282 285 287 289 291 292 292 293 294 294 294 294 297 301 301 300 300 299 297 298 301 303 306 311 313 313 313 313 314 314 314 314 317 319 319 318 318 317 317 316 316 316 316 316 315 315 315 315 315 314 313 311 311 311
282 279 283 288 288 290 294 293 286 282 283 285 288 290 291 291 291 291 292 293 295 299 302 300 299 297 294 294 299 303 306 309 312 313 313 314 314 313 313 313 316 318 319 319 318 318 317 317 316 316 316 316 315 315 315 316 315 314 314 314 312 311 311
289 286 286 289 291 292 293 292 288 285 283 284 287 289 289 289 289 291 295 297 299 302 303 299 297 295 292 292 299 305 308 311 312 313 314 314 313 313 313 315 318 319 318 318 317 316 316 316 317 317 316 316 315 315 315 316 316 315 316 317 314 312 309
291 293 293 293 293 294 294 293 290 286 285 286 286 286 288 289 291 296 301 304 302 300 296 294 295 296 295 294 297 304 307 309 311 313 314 314 313 313 314 316 318 317 317 316 316 315 315 316 317 317 316 316 316 316 316 317 316 316 317 318 316 312 308
291 295 297 297 296 296 296 295 293 289 286 285 285 285 287 290 294 301 305 302 297 293 293 294 294 296 298 296 297 301 306 309 312 314 314 314 314 314 315 317 316 316 316 316 315 314 315 316 317 316 316 316 316 316 316 316 317 317 317 317 315 311 308
289 293 295 295 295 294 294 294 294 291 286 286 286 285 288 292 297 301 298 292 290 293 297 297 290 290 296 297 298 302 308 311 314 315 315 315 315 315 316 316 315 316 316 316 314 314 314 315 316 316 316 316 316 315 315 317 318 318 318 316 313 310 308
290 292 293 292 291 291 290 290 291 289 288 287 284 282 288 297 298 295 291 289 291 294 296 291 284 287 294 298 301 306 310 312 314 315 314 314 315 315 315 314 315 316 316 314 313 313 314 315 316 316 315 316 315 315 316 318 319 318 317 315 312 309 308
291 293 293 291 289 288 288 288 288 288 290 288 283 281 291 300 295 291 291 289 287 289 293 291 286 288 294 300 304 308 311 313 314 314 313 313 314 314 314 314 314 314 314 313 312 312 313 314 315 315 315 315 315 315 317 319 319 319 317 314 311 310 308
291 293 292 290 287 286 286 287 288 289 290 290 289 290 296 299 294 290 290 286 280 281 291 295 292 293 298 302 306 309 311 313 313 313 312 312 312 312 312 312 312 312 312 312 311 312 312 313 314 314 314 314 315 316 318 320 320 318 316 313 312 310 308
291 292 291 288 286 284 284 286 288 289 290 290 293 296 297 296 292 287 285 283 277 276 286 294 296 298 302 304 307 310 311 312 312 311 310 309 309 309 309 309 309 309 309 309 309 310 311 312 313 313 313 314 315 317 319 320 320 318 315 313 313 311 307
291 290 289 288 286 284 283 285 286 287 288 288 290 292 292 291 289 288 286 283 278 279 291 298 300 302 303 305 307 310 310 309 309 308 307 306 306 306 306 306 307 307 307 308 308 308 309 311 311 311 313 315 316 318 321 321 320 318 315 314 315 312 306
290 289 288 288 287 286 285 285 285 285 286 287 288 288 287 289 292 293 291 285 279 282 294 301 302 302 304 305 307 308 307 306 306 305 304 303 303 303 303 304 306 307 307 307 307 306 309 311 311 310 312 314 317 319 321 321 319 317 316 316 315 311 305
287 287 288 287 286 285 284 284 284 284 285 286 286 286 286 289 291 291 291 288 285 288 295 301 301 301 303 305 306 305 303 303 302 302 301 300 300 300 302 305 306 308 308 308 306 307 310 311 310 311 313 315 317 320 320 319 317 317 318 317 314 311 306
286 288 288 286 283 283 282 283 283 283 284 285 285 285 285 285 286 287 287 288 289 292 296 298 298 298 301 302 302 300 299 299 299 299 298 298 299 301 303 305 307 308 309 308 307 310 312 310 310 312 314 315 317 319 319 318 317 318 319 317 314 311 306
288 289 290 284 279 279 280 281 282 283 283 283 281 282 283 282 282 284 285 287 289 292 294 294 295 297 299 299 297 295 295 295 296 296 296 298 300 302 303 305 307 308 309 308 307 310 311 310 312 315 316 317 320 321 320 317 317 319 321 320 318 314 307
289 291 292 286 278 277 278 279 280 281 281 280 280 282 284 284 284 286 288 290 291 291 292 294 295 296 296 295 294 293 293 294 295 296 298 300 301 302 303 306 307 308 309 308 306 307 308 310 313 317 318 319 320 319 316 313 313 313 315 317 316 311 305
290 292 293 288 278 275 277 277 279 280 280 282 284 287 288 288 289 291 291 291 289 288 291 292 292 292 293 293 294 294 294 296 298 299 301 302 302 303 304 306 308 308 308 308 307 306 307 308 310 310 310 309 309 308 308 308 307 308 310 312 310 304 301
289 291 292 285 274 272 277 278 278 280 282 286 287 289 291 290 290 290 289 288 287 286 289 290 289 290 292 294 295 296 297 299 301 302 304 304 304 304 306 307 308 308 307 307 305 304 305 306 306 305 305 305 305 306 307 307 307 307 310 310 304 298 297
288 290 290 280 268 269 278 279 279 282 284 286 286 288 289 289 288 288 288 287 287 287 289 291 292 292 294 295 297 298 298 300 302 304 305 305 304 305 306 307 307 306 305 304 300 298 301 303 303 302 303 304 305 306 308 308 308 309 310 308 300 294 295
288 288 286 274 264 269 279 278 279 284 285 285 284 283 284 284 285 287 288 288 290 291 293 293 293 293 294 295 297 298 298 299 301 302 303 303 303 303 304 305 304 302 301 299 298 299 301 301 300 299 300 302 304 307 308 307 307 308 309 305 299 293 293
284 284 284 274 263 267 276 277 280 284 284 282 282 282 284 285 287 289 290 291 292 293 293 294 294 294 296 296 297 297 297 298 299 299 299 299 300 301 301 301 299 298 297 297 298 299 300 299 298 300 301 303 306 308 307 304 304 306 304 298 293 291 290
283 286 284 271 258 261 270 277 283 285 281 279 281 283 286 288 290 291 293 293 292 291 292 293 294 295 297 298 298 298 297 297 297 298 298 298 299 300 299 297 296 296 296 296 296 297 297 297 299 301 302 304 307 308 305 303 304 305 301 292 286 285 285
288 291 283 263 253 258 270 280 286 284 277 276 278 280 284 288 290 292 294 294 292 291 292 294 295 296 296 297 297 298 297 297 298 298 299 299 299 298 297 295 294 295 294 294 293 293 294 296 298 299 300 303 306 306 304 304 304 303 299 291 283 280 280
287 288 278 261 256 264 276 284 285 278 274 275 277 277 281 286 289 292 295 296 295 294 294 295 295 296 296 296 297 297 297 298 299 298 298 297 297 296 294 293 294 294 293 293 291 291 293 295 296 297 299 302 305 305 303 304 304 300 294 286 278 275 276
283 283 278 269 264 268 274 277 276 273 274 277 278 278 280 284 288 292 294 294 294 293 294 295 295 295 295 296 297 297 298 298 298 298 297 296 294 293 292 292 293 292 291 290 290 291 293 294 294 295 298 302 304 303 303 305 304 297 288 281 274 271 274
281 280 277 273 269 269 271 272 273 276 277 278 279 281 282 284 288 291 291 290 291 291 293 294 295 295 295 296 297 298 299 299 298 297 296 294 293 292 291 291 291 291 290 289 289 290 291 292 293 295 299 302 302 301 303 307 304 292 282 276 270 268 272
Height
5909 5909 5909 5911 5910 5909 5910 5909 5909 5911 5911 5910 5909 5908 5909 5910 5910 5910 5909 5908 5907 5906 5905 5904 5904 5904 5903 5902 5901 5900 5899 5898 5897 5896 5895 5893 5891 5890 5888 5887 5885 5883 5882 5880 5878 5877 5875 5873 5871 5869 5867 5865 5864 5861 5859 5857 5855 5853 5850 5848 5845 5843 5840
5907 5907 5906 5908 5909 5907 5907 5907 5907 5908 5908 5907 5906 5905 5906 5907 5907 5906 5906 5905 5904 5903 5902 5901 5901 5900 5900 5899 5898 5897 5896 5895 5894 5893 5891 5890 5888 5886 5885 5883 5882 5880 5879 5877 5875 5873 5871 5869 5867 5865 5864 5862 5860 5858 5855 5853 5851 5849 5846 5844 5842 5839 5836
5905 5905 5903 5903 5906 5906 5905 5905 5904 5905 5906 5905 5903 5903 5903 5904 5904 5903 5903 5901 5900 5899 5898 5898 5897 5897 5897 5896 5896 5895 5893 5892 5891 5890 5888 5887 5885 5883 5882 5880 5879 5877 5876 5874 5872 5870 5868 5866 5864 5862 5860 5858 5856 5854 5851 5849 5847 5844 5842 5840 5837 5835 5832
5903 5904 5901 5900 5903 5905 5903 5902 5902 5901 5902 5902 5901 5900 5900 5900 5900 5900 5899 5898 5896 5896 5895 5894 5894 5894 5893 5893 5892 5891 5890 5889 5887 5886 5885 5883 5882 5880 5879 5877 5875 5874 5872 5870 5869 5867 5865 5863 5860 5858 5856 5854 5852 5849 5847 5845 5842 5840 5838 5835 5832 5830 5827
5899 5901 5901 5900 5900 5901 5900 5898 5899 5898 5899 5899 5898 5897 5897 5897 5897 5897 5896 5894 5893 5892 5891 5891 5891 5890 5890 5890 5889 5888 5886 5885 5884 5883 5881 5880 5878 5877 5875 5874 5872 5870 5869 5867 5865 5863 5861 5859 5857 5854 5852 5850 5847 5845 5842 5840 5837 5835 5833 5830 5827 5825 5822
5897 5896 5897 5897 5896 5897 5897 5896 5896 5896 5896 5897 5896 5895 5895 5895 5895 5894 5892 5891 5890 5889 5888 5887 5887 5887 5887 5886 5885 5884 5883 5882 5880 5879 5877 5876 5874 5873 5871 5870 5868 5867 5865 5863 5861 5859 5857 5855 5852 5850 5848 5845 5842 5840 5837 5834 5832 5829 5828 5825 5822 5819 5816
5896 5894 5893 5892 5891 5893 5895 5895 5894 5893 5893 5894 5894 5893 5893 5893 5892 5891 5889 5887 5886 5885 5885 5884 5883 5883 5883 5882 5882 5881 5879 5878 5876 5875 5873 5872 5870 5869 5867 5866 5865 5863 5861 5859 5858 5855 5853 5851 5848 5845 5843 5840 5837 5835 5832 5829 5826 5823 5821 5819 5816 5813 5810
5894 5893 5891 5890 5889 5890 5892 5892 5891 5891 5891 5891 5891 5890 5889 5889 5889 5888 5885 5883 5881 5881 5881 5880 5880 5879 5879 5879 5878 5877 5876 5875 5873 5872 5870 5868 5866 5865 5863 5862 5861 5859 5858 5855 5853 5851 5849 5846 5844 5841 5838 5836 5832 5830 5827 5824 5820 5817 5815 5812 5809 5807 5803
5891 5891 5890 5889 5888 5887 5889 5890 5888 5889 5889 5889 5889 5888 5887 5886 5886 5884 5882 5879 5878 5877 5877 5877 5877 5876 5875 5874 5874 5873 5872 5871 5870 5868 5866 5864 5862 5860 5859 5858 5856 5855 5854 5852 5849 5847 5844 5842 5840 5837 5834 5831 5828 5825 5822 5819 5815 5812 5809 5806 5803 5800 5797
5889 5888 5887 5888 5887 5885 5886 5887 5886 5886 5887 5886 5886 5886 5885 5884 5882 5880 5877 5875 5874 5874 5873 5874 5874 5873 5871 5870 5870 5870 5869 5868 5866 5864 5862 5860 5858 5856 5855 5853 5852 5850 5849 5847 5845 5842 5840 5837 5835 5832 5830 5827 5824 5821 5817 5814 5810 5807 5803 5800 5797 5795 5791
5886 5885 5884 5885 5884 5883 5884 5885 5884 5883 5883 5883 5883 5882 5881 5879 5878 5875 5873 5872 5871 5870 5870 5871 5871 5871 5869 5867 5867 5866 5865 5863 5862 5860 5858 5856 5853 5852 5850 5849 5847 5846 5844 5842 5839 5837 5835 5832 5830 5828 5825 5822 5819 5816 5812 5809 5805 5802 5798 5794 5791 5789 5785
5883 5883 5882 5882 5882 5880 5881 5882 5881 5880 5880 5880 5879 5878 5877 5875 5874 5871 5869 5868 5868 5868 5869 5869 5867 5866 5865 5864 5864 5863 5862 5860 5858 5856 5854 5851 5849 5847 5846 5844 5842 5841 5839 5837 5835 5833 5830 5828 5826 5823 5820 5817 5814 5811 5808 5804 5800 5797 5793 5788 5785 5782 5780
5881 5880 5879 5879 5879 5878 5878 5879 5878 5877 5876 5876 5875 5874 5873 5871 5869 5867 5865 5865 5864 5865 5867 5867 5864 5862 5861 5861 5860 5859 5858 5856 5854 5851 5849 5847 5845 5843 5841 5840 5838 5836 5834 5832 5829 5827 5825 5823 5820 5818 5815 5812 5809 5806 5803 5799 5795 5792 5788 5785 5781 5777 5774
5877 5877 5877 5877 5875 5874 5874 5875 5876 5874 5873 5872 5871 5870 5869 5867 5865 5863 5863 5862 5862 5862 5863 5862 5861 5859 5857 5857 5856 5854 5853 5852 5850 5847 5844 5842 5840 5838 5837 5836 5834 5831 5829 5826 5824 5822 5820 5818 5815 5813 5810 5807 5804 5801 5797 5794 5791 5787 5783 5780 5778 5774 5770
5873 5873 5874 5874 5872 5871 5871 5872 5873 5872 5870 5869 5867 5866 5864 5862 5860 5859 5860 5860 5859 5858 5858 5856 5856 5855 5854 5853 5852 5850 5849 5847 5845 5842 5840 5838 5836 5834 5833 5831 5829 5827 5824 5822 5819 5817 5815 5812 5810 5808 5805 5802 5799 5795 5792 5789 5786 5782 5778 5776 5773 5770 5766
5872 5870 5869 5870 5869 5868 5867 5867 5868 5867 5866 5865 5864 5862 5860 5858 5856 5856 5857 5857 5855 5854 5853 5852 5853 5852 5850 5849 5847 5846 5845 5843 5840 5838 5835 5833 5832 5830 5828 5826 5824 5822 5820 5818 5815 5812 5810 5807 5805 5802 5799 5796 5793 5789 5786 5784 5781 5777 5773 5771 5768 5764 5761
5870 5868 5866 5864 5864 5864 5863 5861 5862 5862 5862 5860 5859 5857 5855 5853 5852 5853 5853 5852 5850 5849 5849 5849 5850 5848 5847 5845 5844 5842 5841 5838 5835 5833 5831 5829 5827 5825 5823 5821 5819 5817 5815 5813 5810 5807 5805 5802 5800 5797 5794 5791 5788 5784 5781 5779 5776 5772 5769 5766 5762 5759 5756
5866 5866 5864 5862 5860 5860 5859 5857 5857 5857 5857 5856 5854 5851 5849 5849 5850 5849 5848 5846 5844 5844 5844 5844 5845 5844 5843 5841 5840 5838 5836 5833 5830 5828 5826 5824 5822 5820 5818 5816 5814 5812 5810 5808 5805 5802 5800 5798 5795 5792 5789 5786 5783 5780 5777 5774 5771 5767 5764 5761 5757 5754 5751
5863 5862 5862 5860 5857 5856 5856 5855 5853 5852 5853 5851 5847 5844 5845 5847 5847 5845 5843 5841 5840 5840 5839 5839 5840 5840 5838 5837 5835 5833 5831 5828 5826 5823 5821 5819 5818 5816 5814 5812 5809 5807 5805 5802 5800 5797 5795 5792 5790 5787 5785 5782 5778 5775 5772 5770 5767 5763 5759 5756 5752 5748 5746
5859 5859 5858 5857 5855 5853 5852 5852 5850 5849 5848 5845 5842 5842 5845 5845 5843 5841 5839 5837 5835 5835 5836 5836 5836 5836 5834 5832 5830 5828 5826 5824 5821 5819 5817 5815 5814 5812 5810 5807 5805 5802 5800 5797 5794 5792 5790 5788 5785 5783 5780 5777 5774 5771 5768 5765 5762 5758 5754 5751 5747 5743 5741
5855 5855 5854 5853 5852 5850 5849 5848 5847 5845 5844 5842 5841 5843 5844 5842 5839 5836 5833 5831 5830 5832 5834 5834 5833 5832 5830 5827 5825 5823 5821 5819 5817 5815 5813 5811 5810 5808 5806 5803 5801 5798 5796 5793 5790 5787 5785 5783 5780 5777 5775 5772 5769 5767 5763 5760 5757 5753 5749 5745 5742 5739 5737
5850 5851 5850 5849 5849 5847 5846 5845 5844 5842 5841 5840 5841 5841 5840 5839 5835 5830 5828 5828 5830 5832 5833 5831 5830 5827 5824 5821 5820 5819 5817 5815 5814 5812 5810 5808 5806 5804 5803 5800 5798 5795 5792 5789 5786 5783 5780 5777 5774 5772 5770 5767 5764 5761 5758 5755 5751 5747 5743 5740 5738 5736 5733
5846 5846 5846 5845 5845 5844 5843 5842 5841 5840 5839 5838 5839 5839 5838 5836 5831 5827 5828 5830 5830 5830 5829 5827 5825 5822 5819 5817 5816 5815 5813 5812 5810 5809 5807 5804 5801 5800 5798 5796 5793 5791 5788 5785 5782 5779 5776 5773 5770 5767 5765 5762 5759 5756 5753 5749 5745 5741 5738 5735 5734 5731 5729
5841 5842 5841 5841 5840 5840 5839 5838 5837 5836 5835 5835 5836 5835 5834 5832 5830 5828 5828 5827 5826 5825 5824 5822 5819 5816 5814 5813 5812 5811 5810 5808 5807 5805 5803 5801 5798 5795 5794 5791 5789 5786 5783 5780 5777 5775 5772 5769 5766 5763 5760 5757 5754 5751 5748 5744 5739 5736 5733 5731 5730 5728 5726
5836 5837 5837 5836 5836 5835 5834 5834 5833 5832 5832 5831 5831 5830 5829 5829 5829 5827 5825 5823 5822 5821 5819 5817 5814 5812 5811 5810 5809 5807 5806 5804 5803 5801 5799 5796 5794 5791 5788 5786 5783 5780 5777 5775 5773 5770 5767 5764 5761 5758 5755 5752 5749 5746 5742 5739 5735 5732 5730 5727 5725 5724 5723
5832 5832 5832 5832 5831 5831 5830 5829 5829 5828 5828 5827 5825 5825 5825 5825 5824 5822 5821 5820 5818 5817 5815 5813 5811 5809 5808 5807 5806 5804 5802 5800 5798 5796 5794 5792 5789 5786 5783 5780 5777 5775 5772 5769 5767 5765 5762 5759 5756 5754 5750 5747 5743 5740 5736 5733 5730 5728 5726 5723 5721 5720 5719
5826 5827 5828 5827 5826 5825 5825 5825 5824 5823 5823 5821 5820 5819 5819 5819 5819 5818 5816 5815 5813 5812 5811 5809 5808 5807 5806 5804 5803 5801 5798 5796 5794 5792 5789 5787 5784 5780 5778 5775 5772 5769 5767 5764 5761 5759 5757 5755 5752 5749 5745 5741 5738 5735 5731 5728 5726 5725 5723 5720 5719 5717 5716
5822 5821 5821 5821 5821 5819 5819 5820 5819 5818 5817 5815 5813 5814 5814 5813 5813 5812 5811 5809 5808 5807 5805 5804 5804 5803 5802 5800 5798 5797 5794 5792 5790 5787 5783 5781 5778 5775 5772 5770 5767 5764 5761 5759 5756 5755 5753 5750 5747 5744 5742 5739 5735 5732 5729 5726 5723 5720 5719 5717 5716 5714 5713
5818 5816 5815 5814 5813 5813 5813 5813 5813 5812 5811 5809 5808 5808 5809 5808 5807 5806 5805 5804 5803 5802 5801 5799 5798 5797 5796 5795 5794 5792 5789 5786 5783 5780 5777 5774 5772 5769 5767 5765 5762 5759 5756 5753 5752 5750 5748 5745 5741 5739 5738 5736 5733 5729 5726 5724 5720 5716 5714 5713 5712 5711 5709
5814 5812 5809 5807 5804 5805 5807 5807 5805 5805 5805 5805 5804 5803 5803 5803 5802 5800 5799 5798 5797 5797 5796 5795 5794 5792 5791 5789 5788 5786 5783 5780 5777 5774 5771 5768 5765 5762 5761 5759 5757 5754 5752 5748 5747 5745 5742 5739 5737 5735 5732 5730 5727 5724 5721 5719 5715 5712 5710 5708 5707 5706 5706
5809 5808 5807 5802 5797 5798 5801 5800 5798 5798 5799 5799 5799 5799 5798 5797 5796 5795 5794 5793 5792 5792 5791 5790 5789 5787 5785 5783 5782 5780 5777 5774 5772 5769 5766 5763 5759 5757 5755 5754 5751 5749 5747 5744 5742 5739 5736 5734 5733 5731 5728 5725 5722 5719 5716 5713 5710 5707 5705 5704 5703 5702 5702
5804 5802 5803 5800 5794 5792 5795 5795 5793 5792 5793 5794 5794 5795 5794 5792 5791 5790 5789 5788 5787 5786 5785 5783 5782 5781 5780 5777 5775 5774 5771 5769 5766 5764 5762 5758 5755 5752 5751 5749 5747 5744 5742 5740 5737 5734 5731 5729 5728 5726 5725 5721 5717 5714 5711 5708 5705 5703 5701 5700 5699 5698 5698
5799 5796 5797 5797 5792 5787 5789 5790 5789 5788 5789 5789 5789 5788 5787 5787 5786 5785 5784 5783 5782 5781 5780 5779 5777 5774 5772 5771 5769 5767 5766 5764 5761 5759 5757 5754 5750 5748 5747 5744 5742 5739 5736 5735 5732 5728 5726 5724 5722 5720 5719 5717 5714 5710 5706 5703 5700 5699 5698 5697 5696 5695 5694
5794 5791 5790 5789 5784 5781 5783 5786 5786 5785 5785 5784 5783 5782 5781 5781 5780 5780 5779 5778 5778 5777 5776 5774 5772 5768 5765 5764 5762 5760 5759 5758 5755 5753 5751 5748 5745 5742 5740 5738 5736 5734 5732 5729 5727 5724 5722 5719 5717 5714 5712 5711 5709 5706 5702 5699 5697 5695 5694 5693 5692 5692 5691
5790 5787 5786 5784 5779 5775 5777 5780 5780 5781 5781 5779 5778 5777 5776 5776 5775 5774 5773 5772 5772 5771 5770 5767 5765 5763 5760 5758 5756 5754 5752 5751 5749 5746 5744 5741 5738 5736 5733 5731 5729 5728 5727 5724 5722 5719 5717 5716 5713 5711 5708 5707 5705 5701 5698 5695 5693 5691 5689 5688 5688 5688 5687
5785 5782 5783 5783 5778 5774 5773 5774 5774 5775 5775 5774 5773 5773 5772 5771 5770 5769 5767 5766 5764 5763 5762 5761 5759 5757 5754 5752 5750 5748 5746 5744 5742 5740 5737 5734 5732 5729 5727 5725 5723 5721 5720 5718 5716 5714 5712 5711 5709 5707 5705 5703 5701 5698 5694 5692 5689 5687 5685 5685 5685 5684 5684
5779 5777 5776 5777 5775 5771 5769 5769 5768 5768 5768 5768 5768 5768 5767 5766 5766 5764 5762 5761 5759 5757 5755 5755 5753 5751 5749 5746 5744 5742 5740 5738 5736 5733 5730 5727 5724 5722 5721 5719 5717 5715 5713 5711 5709 5708 5707 5706 5704 5702 5701 5699 5697 5694 5691 5688 5685 5683 5682 5682 5682 5681 5681
5774 5772 5770 5769 5768 5766 5764 5764 5764 5763 5763 5763 5763 5762 5762 5761 5761 5759 5757 5756 5755 5753 5750 5748 5747 5745 5743 5740 5738 5736 5734 5731 5729 5726 5723 5720 5718 5716 5715 5713 5710 5708 5707 5706 5704 5703 5702 5700 5699 5698 5696 5694 5692 5690 5687 5684 5682 5681 5680 5679 5679 5679 5678